Des Moines, IA

2:21 AM CDT on April 24, 2018 (GMT -0500)
Des Moines International

Weather History for KDSM - November, 2012

Change the Weather History Date:

Friday, November 30, 2012

  Actual Average Record
Temperature  
Mean Temperature 40 °F 31 °F  
Max Temperature 52 °F 40 °F 69 °F (1922)
Min Temperature 28 °F 23 °F -3 °F (1964)
Degree Days  
Heating Degree Days 25 34  
Month to date heating degree days 643 775  
Since 1 July heating degree days 1097 1258  
Cooling Degree Days 0 0  
Month to date cooling degree days 3 0  
Year to date cooling degree days 1613 1066  
Moisture  
Dew Point 33 °F    
Average Humidity 76    
Maximum Humidity 92    
Minimum Humidity 59    
Precipitation  
Precipitation 0.00 in 0.06 in 0.91 in (1881)
Month to date precipitation 1.33 2.19  
Year to date precipitation 24.36 34.60  
Snow  
Snow 0.00 in 0.20 in 8.00 in (1893)
Month to date snowfall T 2.5  
Since 1 July snowfall T 2.9  
Since 1 September snowfall T 2.9  
Snow Depth 0.00 in    
Sea Level Pressure  
Sea Level Pressure 30.04 in    
Wind  
Wind Speed 4 mph (East)    
Max Wind Speed 9 mph    
Max Gust Speed 21 mph    
Visibility 6 miles    
Events Fog    
T = Trace of Precipitation, MM = Missing Value Source: NWS Daily Summary

Daily Weather History Graph

Daily Weather History Graph

Search for Another Location

Airport or City:

Astronomy

Nov. 30, 2012 Rise Set
Actual Time 7:21 AM CST 4:45 PM CST
Civil Twilight 6:50 AM CST 5:16 PM CST
Nautical Twilight 6:15 AM CST 5:50 PM CST
Astronomical Twilight 5:42 AM CST 6:24 PM CST
Moon 6:41 PM CST (11/30) 8:53 AM CST (11/30)
Length of Visible Light 10h 26m
Length of Day
9h 24m
Waning Gibbous, 96% of the Moon is Illuminated
Nov 30
Waning Gibbous
Dec 6
Last Quarter
Dec 13
New
Dec 19
First Quarter
Dec 28
Full

Hourly Weather History & Observations

Time (CST) Temp. Windchill Dew Point Humidity Pressure Visibility Wind Dir Wind Speed Gust Speed Precip Events Conditions
12:54 AM 36.0 °F - 30.9 °F 82% 29.99 in 7.0 mi Calm Calm - N/A   Clear
1:54 AM 36.0 °F 32.1 °F 32.0 °F 86% 29.98 in 7.0 mi SE 4.6 mph - N/A   Clear
2:54 AM 35.1 °F 32.2 °F 30.9 °F 85% 29.98 in 6.0 mi ESE 3.5 mph - N/A   Clear
3:54 AM 33.1 °F - 30.0 °F 89% 29.99 in 6.0 mi Calm Calm - N/A   Clear
4:54 AM 30.9 °F 27.5 °F 28.0 °F 89% 29.99 in 4.0 mi ESE 3.5 mph - N/A   Clear
5:54 AM 32.0 °F - 28.9 °F 88% 30.01 in 4.0 mi Calm Calm - N/A   Partly Cloudy
6:54 AM 30.9 °F 27.5 °F 28.0 °F 89% 30.02 in 5.0 mi ENE 3.5 mph - N/A   Mostly Cloudy
7:41 AM 30.2 °F - 26.6 °F 86% 30.01 in 1.2 mi Calm Calm - N/A Fog Patches of Fog
7:52 AM 30.2 °F - 28.4 °F 93% 30.01 in 2.0 mi Calm Calm - N/A Fog Patches of Fog
7:54 AM 30.0 °F - 28.0 °F 92% 30.04 in 3.0 mi Calm Calm - N/A Fog Patches of Fog
8:54 AM 33.1 °F 30.0 °F 28.9 °F 85% 30.06 in 3.0 mi NW 3.5 mph - N/A Fog Patches of Fog
9:54 AM 39.0 °F 34.8 °F 33.1 °F 79% 30.08 in 4.0 mi NNE 5.8 mph - N/A   Haze
10:54 AM 44.1 °F 40.8 °F 35.1 °F 71% 30.09 in 6.0 mi NE 5.8 mph - N/A   Haze
11:54 AM 48.0 °F - 36.0 °F 63% 30.07 in 7.0 mi NE 3.5 mph - N/A   Mostly Cloudy
12:54 PM 51.1 °F - 37.0 °F 59% 30.06 in 8.0 mi NNE 3.5 mph - N/A   Overcast
1:54 PM 52.0 °F - 37.0 °F 57% 30.06 in 8.0 mi Variable 3.5 mph - N/A   Overcast
2:54 PM 52.0 °F - 37.0 °F 57% 30.06 in 8.0 mi Calm Calm - N/A   Overcast
3:54 PM 51.1 °F - 37.0 °F 59% 30.08 in 8.0 mi Calm Calm - N/A   Overcast
4:54 PM 50.0 °F - 37.0 °F 61% 30.07 in 8.0 mi East 3.5 mph - N/A   Overcast
5:54 PM 46.9 °F - 36.0 °F 66% 30.09 in 8.0 mi SE 4.6 mph - N/A   Overcast
6:54 PM 45.0 °F 43.5 °F 36.0 °F 71% 30.09 in 7.0 mi ENE 3.5 mph - N/A   Partly Cloudy
7:54 PM 44.1 °F 40.8 °F 36.0 °F 73% 30.08 in 6.0 mi East 5.8 mph - N/A   Haze
8:54 PM 43.0 °F 38.2 °F 35.1 °F 74% 30.07 in 6.0 mi East 8.1 mph - N/A   Haze
9:54 PM 42.1 °F 37.1 °F 35.1 °F 76% 30.06 in 6.0 mi East 8.1 mph - N/A   Haze
10:54 PM 39.9 °F 35.8 °F 34.0 °F 79% 30.06 in 6.0 mi East 5.8 mph - N/A   Haze
11:54 PM 39.9 °F 35.1 °F 34.0 °F 79% 30.04 in 6.0 mi East 6.9 mph - N/A   Haze